Crockett, TX

5:41 PM CDT on March 27, 2017 (GMT -0500)
Crockett

Weather History for KDKR - October, 2013

Change the Weather History Date:

Wednesday, October 16, 2013

  Actual Average (KLFK) Record (KLFK)
Temperature  
Mean Temperature 65 °F -  
Max Temperature 71 °F 76 °F 94 °F (1933)
Min Temperature 57 °F 55 °F 35 °F (1954)
Growing Degree Days 15 (Base 50)    
Moisture  
Dew Point 61 °F    
Average Humidity 96    
Maximum Humidity 100    
Minimum Humidity 88    
Precipitation  
Precipitation 0.14 in - - ()
Sea Level Pressure  
Sea Level Pressure 30.02 in    
Wind  
Wind Speed 2 mph (NNW)    
Max Wind Speed 9 mph    
Max Gust Speed -    
Visibility 7 miles    
Events Rain    
Averages and records for this station are not official NWS values.
T = Trace of Precipitation, MM = Missing Value Source: NWS Daily Summary

Daily Weather History Graph

Daily Weather History Graph

Search for Another Location

Airport or City:

Trip Planner

Search our weather history database for the weather conditions in past years. The results will help you decide how hot, cold, wet, or windy it might be!

Date:

Astronomy

Oct. 16, 2013 Rise Set
Actual Time 7:25 AM CDT 6:48 PM CDT
Civil Twilight 7:00 AM CDT 7:12 PM CDT
Nautical Twilight 6:32 AM CDT 7:40 PM CDT
Astronomical Twilight 6:04 AM CDT 8:09 PM CDT
Moon 5:22 PM CDT (10/16) 5:02 AM CDT (10/16)
Length of Visible Light 12h 11m
Length of Day
11h 22m
Waxing Gibbous, 94% of the Moon is Illuminated
Oct 16
Waxing Gibbous
Oct 18
Full
Oct 26
Last Quarter
Nov 3
New
Nov 9
First Quarter

Hourly Weather History & Observations

Time (CDT) Temp. Dew Point Humidity Pressure Visibility Wind Dir Wind Speed Gust Speed Precip Events Conditions
12:15 AM 69.8 °F 69.8 °F 100% 29.96 in 7.0 mi Calm Calm - N/A   Scattered Clouds
12:35 AM 71.6 °F 69.8 °F 94% 29.96 in 4.0 mi Calm Calm - N/A   Overcast
12:55 AM 69.8 °F 68.0 °F 94% 29.97 in 1.2 mi WNW 9.2 mph - N/A   Overcast
1:15 AM 66.2 °F 66.2 °F 100% 29.96 in 0.8 mi West 5.8 mph - N/A   Overcast
1:35 AM 66.2 °F 66.2 °F 100% 29.96 in 1.0 mi Calm Calm - 0.01 in   Overcast
1:55 AM 66.2 °F 64.4 °F 94% 29.96 in 1.5 mi WNW 3.5 mph - 0.01 in   Overcast
2:15 AM 64.4 °F 64.4 °F 100% 29.96 in 2.0 mi NW 5.8 mph - N/A   Overcast
2:35 AM 64.4 °F 64.4 °F 100% 29.96 in 10.0 mi Calm Calm - N/A   Overcast
2:55 AM 64.4 °F 64.4 °F 100% 29.96 in 10.0 mi Calm Calm - N/A   Overcast
3:15 AM 64.4 °F 64.4 °F 100% 29.96 in 8.0 mi Calm Calm - N/A   Overcast
3:35 AM 64.4 °F 64.4 °F 100% 29.96 in 7.0 mi Calm Calm - N/A   Overcast
3:55 AM 64.4 °F 62.6 °F 94% 29.97 in 3.0 mi Calm Calm - N/A   Light Drizzle
4:15 AM 62.6 °F 62.6 °F 100% 29.98 in 3.0 mi WNW 4.6 mph - N/A   Overcast
4:35 AM 62.6 °F 60.8 °F 94% 29.98 in 10.0 mi NW 6.9 mph - 0.01 in   Overcast
4:55 AM 62.6 °F 60.8 °F 94% 29.99 in 10.0 mi NNW 5.8 mph - 0.01 in   Overcast
5:15 AM 62.6 °F 62.6 °F 100% 29.99 in 10.0 mi North 4.6 mph - N/A   Mostly Cloudy
5:35 AM 62.6 °F 62.6 °F 100% 29.99 in 10.0 mi Calm Calm - N/A   Mostly Cloudy
5:55 AM 64.4 °F 62.6 °F 94% 30.01 in 8.0 mi Calm Calm - N/A   Light Drizzle
6:15 AM 64.4 °F 62.6 °F 94% 30.02 in 4.0 mi Calm Calm - N/A Rain Rain
6:35 AM 64.4 °F 62.6 °F 94% 30.01 in 5.0 mi North 4.6 mph - 0.02 in Rain Light Rain
6:55 AM 64.4 °F 62.6 °F 94% 30.02 in 2.5 mi Calm Calm - 0.03 in Rain Light Rain
7:15 AM 64.4 °F 64.4 °F 100% 30.01 in 5.0 mi NE 4.6 mph - N/A   Overcast
7:35 AM 64.4 °F 64.4 °F 100% 30.01 in 10.0 mi Calm Calm - 0.01 in   Mostly Cloudy
7:55 AM 64.4 °F 62.6 °F 94% 30.01 in 10.0 mi Calm Calm - 0.01 in   Overcast
8:15 AM 64.4 °F 62.6 °F 94% 30.01 in 10.0 mi Calm Calm - N/A   Overcast
8:35 AM 64.4 °F 62.6 °F 94% 30.02 in 10.0 mi Calm Calm - N/A   Mostly Cloudy
8:55 AM 62.6 °F 62.6 °F 100% 30.03 in 5.0 mi NNW 3.5 mph - N/A   Light Drizzle
9:15 AM 62.6 °F 60.8 °F 94% 30.04 in 1.8 mi NW 3.5 mph - 0.01 in Rain Light Rain
9:35 AM 60.8 °F 60.8 °F 100% 30.05 in 5.0 mi NNW 3.5 mph - 0.02 in Rain Light Rain
9:55 AM 60.8 °F 59.0 °F 94% 30.05 in 2.5 mi North 3.5 mph - 0.04 in Rain Rain
10:15 AM 60.8 °F 59.0 °F 94% 30.03 in 2.5 mi NNE 4.6 mph - 0.03 in Rain Light Rain
10:35 AM 60.8 °F 60.8 °F 100% 30.03 in 5.0 mi NNE 5.8 mph - 0.04 in   Light Drizzle
10:55 AM 60.8 °F 60.8 °F 100% 30.05 in 10.0 mi North 3.5 mph - 0.04 in Rain Light Rain
11:15 AM 62.6 °F 60.8 °F 94% 30.06 in 10.0 mi NNW 3.5 mph - N/A   Overcast
11:35 AM 60.8 °F 60.8 °F 100% 30.06 in 10.0 mi Calm Calm - N/A Rain Light Rain
11:55 AM 62.6 °F 60.8 °F 94% 30.05 in 7.0 mi Calm Calm - N/A   Light Drizzle
12:15 PM 60.8 °F 60.8 °F 100% 30.06 in 10.0 mi NNW 4.6 mph - N/A   Light Drizzle
12:35 PM 62.6 °F 60.8 °F 94% 30.06 in 10.0 mi NW 4.6 mph - N/A   Overcast
12:55 PM 62.6 °F 60.8 °F 94% 30.05 in 10.0 mi Calm Calm - N/A   Overcast
1:15 PM 60.8 °F 59.0 °F 94% 30.03 in 10.0 mi NNW 4.6 mph - N/A Rain Light Rain
1:35 PM 60.8 °F 60.8 °F 100% 30.02 in 9.0 mi NNW 3.5 mph - N/A   Overcast
1:55 PM 60.8 °F 60.8 °F 100% 30.03 in 10.0 mi NNW 4.6 mph - N/A   Overcast
2:15 PM 60.8 °F 60.8 °F 100% 30.03 in 10.0 mi Calm Calm - N/A   Overcast
2:35 PM 60.8 °F 60.8 °F 100% 30.02 in 10.0 mi Calm Calm - N/A   Overcast
2:55 PM 60.8 °F 60.8 °F 100% 30.01 in 8.0 mi NNW 6.9 mph - N/A   Overcast
3:15 PM 60.8 °F 59.0 °F 94% 30.01 in 6.0 mi Calm Calm - N/A   Overcast
3:35 PM 60.8 °F 60.8 °F 100% 30.01 in 5.0 mi North 4.6 mph - N/A   Overcast
3:55 PM 60.8 °F 60.8 °F 100% 30.01 in 5.0 mi Calm Calm - N/A   Overcast
4:15 PM 60.8 °F 60.8 °F 100% 30.01 in 6.0 mi NNW 3.5 mph - N/A   Overcast
4:35 PM 60.8 °F 60.8 °F 100% 30.01 in 5.0 mi Calm Calm - N/A   Overcast
4:55 PM 60.8 °F 59.0 °F 94% 30.01 in 5.0 mi NNW 3.5 mph - N/A   Light Drizzle
5:15 PM 60.8 °F 60.8 °F 100% 30.01 in 7.0 mi Calm Calm - N/A   Overcast
5:35 PM 60.8 °F 59.0 °F 94% 30.01 in 7.0 mi North 4.6 mph - N/A   Overcast
5:55 PM 60.8 °F 59.0 °F 94% 30.01 in 8.0 mi Calm Calm - N/A   Overcast
6:15 PM 60.8 °F 59.0 °F 94% 30.02 in 9.0 mi Calm Calm - N/A   Overcast
6:35 PM 60.8 °F 59.0 °F 94% 30.03 in 9.0 mi Calm Calm - N/A   Overcast
6:55 PM 60.8 °F 59.0 °F 94% 30.03 in 8.0 mi Calm Calm - N/A   Overcast
7:15 PM 60.8 °F 59.0 °F 94% 30.03 in 5.0 mi Calm Calm - N/A   Overcast
7:35 PM 60.8 °F 59.0 °F 94% 30.04 in 2.0 mi Calm Calm - N/A   Light Drizzle
7:55 PM 60.8 °F 59.0 °F 94% 30.05 in 2.0 mi Calm Calm - N/A   Overcast
8:15 PM 60.8 °F 59.0 °F 94% 30.06 in 1.5 mi Calm Calm - N/A   Overcast
8:35 PM 60.8 °F 59.0 °F 94% 30.06 in 2.5 mi NNW 3.5 mph - N/A   Overcast
8:55 PM 60.8 °F 57.2 °F 88% 30.06 in 3.0 mi Calm Calm - N/A   Overcast
9:15 PM 60.8 °F 57.2 °F 88% 30.07 in 5.0 mi Calm Calm - N/A   Overcast
9:35 PM 60.8 °F 57.2 °F 88% 30.08 in 10.0 mi Calm Calm - N/A   Overcast
9:55 PM 60.8 °F 57.2 °F 88% 30.08 in 10.0 mi Calm Calm - N/A   Overcast
10:15 PM 60.8 °F 57.2 °F 88% 30.07 in 10.0 mi Calm Calm - N/A   Overcast
10:35 PM 59.0 °F 57.2 °F 94% 30.08 in 10.0 mi Calm Calm - N/A   Overcast
10:55 PM 59.0 °F 57.2 °F 94% 30.08 in 10.0 mi NNW 3.5 mph - N/A   Overcast
11:15 PM 59.0 °F 57.2 °F 94% 30.08 in 10.0 mi Calm Calm - N/A   Overcast
11:35 PM 59.0 °F 57.2 °F 94% 30.07 in 10.0 mi North 4.6 mph - N/A   Overcast
11:55 PM 57.2 °F 57.2 °F 100% 30.06 in 10.0 mi North 3.5 mph - N/A   Overcast